FW3577 Weather Reports


time (UTC)temp
C
wind
direction
speed
KPH
gust
KPH
rain 1hr
cm
rain 24hr
cm
rain mn
cm
humidity
%
barometer
mb
20260507060000 0 126 0.0 0.0 0.00 0.00 0.00 80 1012.5
20260507055459 -1 134 0.0 0.0 0.00 0.00 0.00 81 1012.7
20260507054959 -1 132 0.0 0.0 0.00 0.00 0.00 80 1012.7
20260507054501 -1 127 0.0 0.0 0.00 0.00 0.00 79 1012.8
20260507054001 -1 126 0.0 0.0 0.00 0.00 0.00 79 1012.8
20260507053500 -1 125 0.0 0.0 0.00 0.00 0.00 76 1012.9
20260507053001 -1 120 0.0 0.0 0.00 0.00 0.00 75 1013.0
20260507052500 0 109 0.0 0.0 0.00 0.00 0.00 76 1012.9
20260507051500 0 127 0.0 0.0 0.00 0.00 0.00 76 1013.1
20260507050501 0 127 0.0 0.0 0.00 0.00 0.00 73 1013.1
20260507050006 0 115 0.0 0.0 0.00 0.00 0.00 73 1013.0
20260507045500 0 123 0.0 0.0 0.00 0.00 0.00 71 1013.1
20260507045001 1 127 0.0 0.0 0.00 0.00 0.00 69 1013.2
20260507044501 1 116 0.0 0.0 0.00 0.00 0.00 70 1013.2
20260507044001 1 96 0.0 0.0 0.00 0.00 0.00 70 1013.2
20260507043001 1 110 0.0 0.0 0.00 0.00 0.00 68 1013.2
20260507042001 1 108 0.0 0.0 0.00 0.00 0.00 66 1013.3
20260507041500 2 76 0.0 0.0 0.00 0.00 0.00 64 1013.4
20260507041000 2 110 0.0 0.0 0.00 0.00 0.00 64 1013.5
20260507040500 3 84 0.0 0.0 0.00 0.00 0.00 63 1013.5
20260507035500 3 101 0.0 0.0 0.00 0.00 0.00 64 1013.4
20260507035001 3 91 0.0 0.0 0.00 0.00 0.00 64 1013.5
20260507034500 2 96 0.0 0.0 0.00 0.00 0.00 64 1013.6
20260507034001 3 126 0.0 0.0 0.00 0.00 0.00 60 1013.7
20260507033501 4 107 0.0 0.0 0.00 0.00 0.00 60 1013.8
20260507033001 4 92 0.0 0.0 0.00 0.00 0.00 60 1013.7
20260507032001 5 83 0.0 0.0 0.00 0.00 0.00 60 1013.9
20260507031001 5 108 0.0 0.0 0.00 0.00 0.00 59 1013.8
20260507030500 5 86 0.0 0.0 0.00 0.00 0.00 59 1013.6
20260507030002 5 84 0.0 0.0 0.00 0.00 0.00 60 1013.6
20260507025500 5 121 0.0 0.0 0.00 0.00 0.00 60 1013.6
20260507025000 5 105 0.0 0.0 0.00 0.00 0.00 59 1013.6
20260507023500 5 77 0.0 0.0 0.00 0.00 0.00 60 1013.5
20260507023001 5 78 0.0 0.0 0.00 0.00 0.00 60 1013.5
20260507022500 6 78 0.0 0.0 0.00 0.00 0.00 58 1013.4
20260507021500 6 83 0.0 0.0 0.00 0.00 0.00 57 1013.5
20260507021000 6 77 0.0 0.0 0.00 0.00 0.00 57 1013.4
20260507020500 6 72 0.0 0.0 0.00 0.00 0.00 57 1013.5
20260507020001 6 80 0.0 0.0 0.00 0.00 0.00 57 1013.5
20260507015500 6 85 0.0 0.0 0.00 0.00 0.00 56 1013.5
20260507015000 6 78 0.0 0.0 0.00 0.00 0.00 55 1013.4
20260507014500 6 78 0.0 0.0 0.00 0.00 0.00 55 1013.3
20260507014001 7 80 0.0 0.0 0.00 0.00 0.00 55 1013.4
20260507013459 7 79 0.0 0.0 0.00 0.00 0.00 54 1013.3
20260507013001 7 72 0.0 0.0 0.00 0.00 0.00 54 1013.4
20260507012500 7 71 0.0 0.0 0.00 0.00 0.00 54 1013.4
20260507012000 7 71 0.0 0.0 0.00 0.00 0.00 54 1013.4
20260507011500 7 71 0.0 0.0 0.00 0.00 0.00 54 1013.4
20260507011000 7 70 0.0 0.0 0.00 0.00 0.00 54 1013.4
20260507010500 7 67 0.0 0.0 0.00 0.00 0.00 53 1013.5
20260507010002 7 79 0.0 0.0 0.00 0.00 0.00 53 1013.5
20260507005500 8 63 0.0 0.0 0.00 0.00 0.00 52 1013.5
20260507005000 8 63 0.0 0.0 0.00 0.00 0.00 51 1013.6
20260507004500 8 53 0.0 0.0 0.00 0.00 0.00 51 1013.6
20260507004001 8 53 0.0 0.0 0.00 0.00 0.00 51 1013.6
20260507003500 9 43 0.0 0.0 0.00 0.00 0.00 49 1013.7
20260507003000 9 52 0.0 0.0 0.00 0.00 0.00 49 1013.7
20260507002500 10 34 0.0 0.0 0.00 0.00 0.00 48 1013.8
20260507002001 10 15 0.0 0.0 0.00 0.00 0.00 46 1013.9
20260507001500 10 354 0.0 0.0 0.00 0.00 0.00 46 1013.9
20260507001000 10 354 0.0 0.0 0.00 0.00 0.00 43 1013.9
20260507000002 10 23 0.0 0.0 0.00 0.00 0.00 44 1014.0
20260506235500 10 349 0.0 0.0 0.00 0.00 0.00 43 1014.1
20260506235000 11 39 0.0 0.0 0.00 0.00 0.00 43 1014.0
20260506234500 11 35 0.0 0.0 0.00 0.00 0.00 43 1014.1
20260506234001 11 359 0.0 0.0 0.00 0.00 0.00 42 1014.1
20260506233500 11 340 0.0 0.0 0.00 0.00 0.00 43 1014.0
20260506233001 11 324 0.0 0.0 0.00 0.00 0.00 43 1014.1
20260506232459 11 344 0.0 0.0 0.00 0.00 0.00 43 1014.2
20260506232000 11 355 0.0 0.0 0.00 0.00 0.00 45 1014.1
20260506231500 11 337 0.0 0.0 0.00 0.00 0.00 44 1014.2
20260506230500 10 25 0.0 0.0 0.00 0.00 0.00 44 1014.4
20260506230004 10 352 0.0 0.0 0.00 0.00 0.00 45 1014.3
20260506225500 10 18 0.0 0.0 0.00 0.00 0.00 44 1014.4
20260506225000 10 345 0.0 0.0 0.00 0.00 0.00 44 1014.4
20260506224500 10 13 0.0 0.0 0.00 0.00 0.00 44 1014.5
20260506224001 10 337 0.0 0.0 0.00 0.00 0.00 44 1014.5
20260506223500 10 342 0.0 0.0 0.00 0.00 0.00 45 1014.5
20260506223001 10 323 0.0 0.0 0.00 0.00 0.00 44 1014.6
20260506222001 10 18 0.0 0.0 0.00 0.00 0.00 44 1014.6
20260506221001 11 329 0.0 0.0 0.00 0.00 0.00 42 1014.5
20260506220500 11 302 0.0 0.0 0.00 0.00 0.00 41 1014.5
20260506220001 11 321 0.0 0.0 0.00 0.00 0.00 41 1014.6
20260506215000 11 297 0.0 0.0 0.00 0.00 0.00 45 1014.7
20260506214500 11 326 0.0 0.0 0.00 0.00 0.00 43 1014.7
20260506214001 11 336 0.0 0.0 0.00 0.00 0.00 43 1014.7
20260506213001 11 297 0.0 0.0 0.00 0.00 0.00 42 1014.8
20260506212001 11 356 0.0 0.0 0.00 0.00 0.00 42 1015.0
20260506211500 11 323 0.0 0.0 0.00 0.00 0.00 46 1014.9
20260506211001 10 336 0.0 0.0 0.00 0.00 0.00 44 1015.1
20260506210500 10 295 0.0 0.0 0.00 0.00 0.00 45 1015.2
20260506210004 11 296 0.0 0.0 0.00 0.00 0.00 45 1015.3
20260506205500 10 337 0.0 0.0 0.00 0.00 0.00 46 1015.4
20260506205000 10 315 0.0 0.0 0.00 0.00 0.00 44 1015.4
20260506204500 11 302 0.0 0.0 0.00 0.00 0.00 45 1015.5
20260506204000 10 316 0.0 0.0 0.00 0.00 0.00 45 1015.5
20260506203500 10 293 0.0 0.0 0.00 0.00 0.00 43 1015.4
20260506203000 11 255 0.0 0.0 0.00 0.00 0.00 44 1015.6
20260506202500 11 346 0.0 0.0 0.00 0.00 0.00 44 1015.6
20260506202000 11 308 0.0 0.0 0.00 0.00 0.00 42 1015.8
20260506200500 11 317 0.0 0.0 0.00 0.00 0.00 48 1015.9
20260506200002 10 315 0.0 0.0 0.00 0.00 0.00 46 1015.9
20260506195500 10 305 0.0 0.0 0.00 0.00 0.00 45 1015.9
20260506194500 10 316 0.0 0.0 0.00 0.00 0.00 45 1016.0
20260506194000 10 314 0.0 0.0 0.00 0.00 0.00 44 1016.0
20260506193001 10 304 0.0 0.0 0.00 0.00 0.00 44 1016.1
20260506192001 10 303 0.0 0.0 0.00 0.00 0.00 45 1016.1
20260506191500 10 321 0.0 0.0 0.00 0.00 0.00 46 1016.3
20260506191000 10 338 0.0 0.0 0.00 0.00 0.00 47 1016.3
20260506190459 10 300 0.0 0.0 0.00 0.00 0.00 46 1016.4
20260506190002 10 283 0.0 0.0 0.00 0.00 0.00 46 1016.4
20260506184459 10 342 0.0 0.0 0.00 0.00 0.00 47 1016.5
20260506184000 10 243 0.0 0.0 0.00 0.00 0.00 49 1016.7
20260506183459 9 319 0.0 0.0 0.00 0.00 0.00 47 1016.7
20260506183000 9 317 0.0 0.0 0.00 0.00 0.00 46 1016.8
20260506182500 8 298 0.0 0.0 0.00 0.00 0.00 47 1017.0
20260506182000 8 328 0.0 0.0 0.00 0.00 0.00 47 1017.1
20260506180459 8 292 0.0 0.0 0.00 0.00 0.00 48 1017.4
20260506180001 8 335 0.0 0.0 0.00 0.00 0.00 48 1017.4
20260506175500 9 320 0.0 0.0 0.00 0.00 0.00 50 1017.5
20260506175001 8 311 0.0 0.0 0.00 0.00 0.00 49 1017.6
20260506174500 8 323 0.0 0.0 0.00 0.00 0.00 50 1017.6
20260506173459 8 298 0.0 0.0 0.00 0.00 0.00 51 1017.7
20260506173000 8 253 0.0 0.0 0.00 0.00 0.00 51 1017.8
20260506172459 8 309 0.0 0.0 0.00 0.00 0.00 55 1017.8
20260506172001 8 326 0.0 0.0 0.00 0.00 0.00 52 1017.9
20260506171459 8 309 0.0 0.0 0.00 0.00 0.00 51 1017.9
20260506171000 8 319 0.0 0.0 0.00 0.00 0.00 54 1017.9
20260506170459 7 297 0.0 0.0 0.00 0.00 0.00 51 1017.9
20260506170000 7 313 0.0 0.0 0.00 0.00 0.00 52 1017.9
20260506165501 7 340 0.0 0.0 0.00 0.00 0.00 53 1017.9
20260506165000 7 286 0.0 0.0 0.00 0.00 0.00 52 1017.9
20260506164500 7 349 0.0 0.0 0.00 0.00 0.00 54 1018.1
20260506164000 7 35 0.0 0.0 0.00 0.00 0.00 53 1018.0
20260506163459 8 346 0.0 0.0 0.00 0.00 0.00 52 1018.3
20260506163001 8 280 0.0 0.0 0.00 0.00 0.00 54 1018.3
20260506162459 7 273 0.0 0.0 0.00 0.00 0.00 53 1018.4
20260506162000 7 331 0.0 0.0 0.00 0.00 0.00 53 1018.3
20260506161500 7 288 0.0 0.0 0.00 0.00 0.00 52 1018.4
20260506161000 7 253 0.0 0.0 0.00 0.00 0.00 56 1018.3
20260506160459 7 53 0.0 0.0 0.00 0.00 0.00 57 1018.4
20260506160001 6 318 0.0 0.0 0.00 0.00 0.00 56 1018.4
20260506155459 6 304 0.0 0.0 0.00 0.00 0.00 55 1018.4
20260506155000 7 309 0.0 0.0 0.00 0.00 0.00 55 1018.4
20260506154459 7 294 0.0 0.0 0.00 0.00 0.00 55 1018.4
20260506154000 7 27 0.0 0.0 0.00 0.00 0.00 57 1018.3
20260506153459 7 353 0.0 0.0 0.00 0.00 0.00 57 1018.5
20260506153000 6 13 0.0 0.0 0.00 0.00 0.00 58 1018.5
20260506152459 6 341 0.0 0.0 0.00 0.00 0.00 58 1018.5
20260506152001 6 331 0.0 0.0 0.00 0.00 0.00 59 1018.6
20260506151459 6 326 0.0 0.0 0.00 0.00 0.00 56 1018.5
20260506151000 6 321 0.0 0.0 0.00 0.00 0.00 57 1018.4
20260506150459 6 305 0.0 0.0 0.00 0.00 0.00 58 1018.5
20260506150000 6 239 0.0 0.0 0.00 0.00 0.00 57 1018.4
20260506145000 6 288 0.0 0.0 0.00 0.00 0.00 60 1018.5
20260506144500 5 288 0.0 0.0 0.00 0.00 0.00 59 1018.7
20260506144000 5 288 0.0 0.0 0.00 0.00 0.00 60 1018.7
20260506143459 5 312 0.0 0.0 0.00 0.00 0.00 59 1018.8
20260506143000 5 311 0.0 0.0 0.00 0.00 0.00 59 1018.7
20260506142459 5 136 0.0 0.0 0.00 0.00 0.00 61 1018.7
20260506142000 5 37 0.0 0.0 0.00 0.00 0.00 61 1018.8
20260506141459 5 325 0.0 0.0 0.00 0.00 0.00 62 1018.7
20260506140459 5 332 0.0 0.0 0.00 0.00 0.00 63 1018.7
20260506140000 5 22 0.0 0.0 0.00 0.00 0.00 64 1018.7
20260506135459 4 350 0.0 0.0 0.00 0.00 0.00 65 1018.8
20260506135000 4 345 0.0 0.0 0.00 0.00 0.00 64 1018.8
20260506134459 3 10 0.0 0.0 0.00 0.00 0.00 65 1018.7
20260506133000 3 285 0.0 0.0 0.00 0.00 0.00 73 1018.4
20260506132459 2 285 0.0 0.0 0.00 0.00 0.00 75 1018.5
20260506131459 2 285 0.0 0.0 0.00 0.00 0.00 79 1018.4
20260506131000 1 285 0.0 0.0 0.00 0.00 0.00 80 1018.4
20260506130500 1 285 0.0 0.0 0.00 0.00 0.00 80 1018.5
20260506130000 1 285 0.0 0.0 0.00 0.00 0.00 81 1018.3
20260506125459 1 285 0.0 0.0 0.00 0.00 0.00 81 1018.3
20260506125000 1 290 0.0 0.0 0.00 0.00 0.00 82 1018.2
20260506124459 1 290 0.0 0.0 0.00 0.00 0.00 83 1018.3
20260506124000 0 270 0.0 0.0 0.00 0.00 0.00 84 1018.3
20260506123500 0 288 0.0 0.0 0.00 0.00 0.00 84 1018.3
20260506122459 0 264 0.0 0.0 0.00 0.00 0.00 84 1018.3
20260506121459 0 275 0.0 0.0 0.00 0.00 0.00 84 1018.0
20260506121000 0 285 0.0 0.0 0.00 0.00 0.00 84 1018.0
20260506120459 0 285 0.0 0.0 0.00 0.00 0.00 84 1018.0
20260506120000 0 285 0.0 0.0 0.00 0.00 0.00 84 1017.9
20260506115501 0 285 0.0 0.0 0.00 0.00 0.00 85 1017.9
20260506115000 0 285 0.0 0.0 0.00 0.00 0.00 85 1017.8
20260506114459 0 285 0.0 0.0 0.00 0.00 0.00 85 1017.8
20260506114005 0 285 0.0 0.0 0.00 0.00 0.00 85 1017.6
20260506113459 0 285 0.0 0.0 0.00 0.00 0.00 85 1017.7
20260506113000 0 287 0.0 0.0 0.00 0.00 0.00 85 1017.6
20260506112459 0 282 0.0 0.0 0.00 0.00 0.00 85 1017.7
20260506112001 0 295 0.0 0.0 0.00 0.00 0.00 85 1017.6
20260506111459 0 280 0.0 0.0 0.00 0.00 0.00 85 1017.6
20260506111000 0 278 0.0 0.0 0.00 0.00 0.00 85 1017.5
20260506110459 0 286 0.0 0.0 0.00 0.00 0.00 85 1017.5
20260506110001 0 295 0.0 0.0 0.00 0.00 0.00 85 1017.5
20260506105500 0 295 0.0 0.0 0.00 0.00 0.00 84 1017.4
20260506105000 0 295 0.0 0.0 0.00 0.00 0.00 84 1017.4
20260506104459 0 295 0.0 0.0 0.00 0.00 0.00 84 1017.4
20260506103959 0 295 0.0 0.0 0.00 0.00 0.00 84 1017.3
20260506103459 0 294 0.0 0.0 0.00 0.00 0.00 84 1017.3
20260506103000 0 294 0.0 0.0 0.00 0.00 0.00 84 1017.3
20260506102500 0 294 0.0 0.0 0.00 0.00 0.00 84 1017.3
20260506101959 0 293 0.0 0.0 0.00 0.00 0.00 84 1017.2
20260506101459 0 288 0.0 0.0 0.00 0.00 0.00 84 1017.2
20260506101000 0 300 0.0 0.0 0.00 0.00 0.00 83 1017.4
20260506100459 0 301 0.0 0.0 0.00 0.00 0.00 83 1017.2
20260506100000 0 301 0.0 0.0 0.00 0.00 0.00 83 1017.4
20260506095459 0 292 0.0 0.0 0.00 0.00 0.00 83 1017.3
20260506094959 0 295 0.0 0.0 0.00 0.00 0.00 83 1017.2
20260506094459 0 295 0.0 0.0 0.00 0.00 0.00 83 1017.2
20260506094000 0 295 0.0 0.0 0.00 0.00 0.00 83 1017.3
20260506093459 0 288 0.0 0.0 0.00 0.00 0.00 83 1017.1
20260506093000 0 287 0.0 0.0 0.00 0.00 0.00 83 1017.0
20260506092459 0 285 0.0 0.0 0.00 0.00 0.00 83 1017.0
20260506091959 0 290 0.0 0.0 0.00 0.00 0.00 82 1017.1
20260506091459 0 281 0.0 0.0 0.00 0.00 0.00 82 1017.1
20260506091000 0 276 0.0 0.0 0.00 0.00 0.00 82 1017.0
20260506090000 0 291 0.0 0.0 0.00 0.00 0.00 82 1017.0
20260506085459 0 309 0.0 0.0 0.00 0.00 0.00 82 1017.0
20260506085000 0 310 0.0 0.0 0.00 0.00 0.00 82 1017.0
20260506083959 0 311 0.0 0.0 0.00 0.00 0.00 83 1016.9
20260506083459 0 311 0.0 0.0 0.00 0.00 0.00 83 1017.0
20260506083000 0 311 0.0 0.0 0.00 0.00 0.00 83 1016.9
20260506082459 0 286 0.0 0.0 0.00 0.00 0.00 83 1017.0
20260506082000 0 286 0.0 0.0 0.00 0.00 0.00 83 1016.9
20260506081459 0 286 0.0 0.0 0.00 0.00 0.00 83 1016.9
20260506081000 0 286 0.0 0.0 0.00 0.00 0.00 82 1016.8
20260506080459 0 286 0.0 0.0 0.00 0.00 0.00 83 1016.8
20260506073458 0 319 0.0 0.0 0.00 0.00 0.00 82 1016.7
20260506072959 0 319 0.0 0.0 0.00 0.00 0.00 82 1016.8
20260506072458 0 319 0.0 0.0 0.00 0.00 0.00 82 1016.8
20260506071959 0 319 0.0 0.0 0.00 0.00 0.00 82 1016.8
20260506071459 0 319 0.0 0.0 0.00 0.00 0.00 82 1016.9
20260506070959 0 319 0.0 0.0 0.00 0.00 0.00 82 1016.8
20260506070458 0 319 0.0 0.0 0.00 0.00 0.00 82 1016.9
20260506061458 -1 4 0.0 0.0 0.00 0.00 0.00 81 1016.9
20260506060959 -1 4 0.0 0.0 0.00 0.00 0.00 81 1017.0